User: anonymous   Login
Location: Asheville, NC
(35.6000°N, 82.5500°W)
Time: 23:02:26
(UTC-04:00)
Language:

ITAMSAT 1 - Orbit

View from above orbital plane
View from above orbital plane
View from above satellite
View from above satellite

Ground track
Ground track

The orbit data is extracted from the following two-line orbital elements,

1 22826U 93061D   18198.52661958 -.00000013 +00000-0 +12762-4 0  9995
2 22826 098.8585 175.2295 0007874 245.2444 114.7919 14.30366377293845
Epoch (UTC): 17 July 2018 12:38:19
Eccentricity: 0.0007874
inclination: 98.8585°
perigee height: 785 km
apogee height: 796 km
right ascension of ascending node: 175.2295°
argument of perigee: 245.2444°
revolutions per day: 14.30366377
mean anomaly at epoch: 114.7919°
orbit number at epoch: 29384

The dashed part of the orbit path shows where the satellite is in the earth's shadow,  

DLR